SL-16 R/B (16182 NORAD) Tracking and Keplerian Element Data

This shows tracking and keplerian element data for the satellite.

Feedback or suggestion? Click here.




ElementValue
Catalog16182
NameSL-16 R/B
Epoch Orbit7597
Epoch Day354.18423226
Epoch Year2025
RAAN307.93
Inclination71.0037
Eccentricity0.0007178
Argument of Perigee358.6902
Mean Anonmoly13.0966
Mean Motion14.1658771
Decay Rate1.1E-07
L11 16182U 85097B 25354.18423226 .00000011 00000+0 29501-4 0 9996
L22 16182 71.0037 307.9300 0007178 358.6902 13.0966 14.16587710 75979



Live tracking and technical data element details for SL-16 R/B (NORAD 16182). SL-16 R/B can be tracked NOW for your location showing map with azimuth and elevation plus other details from your city location.







IsCatalogInMostPopularTable: catalog: 16182, numindb: 485
Update: records affected: 1



GetName: 16182 SL-16 R/B

Hit Count: updated at: Thu, 16 Apr 2026 05:18:59 GMT